Regional Weather Roundup
Issued by NWS

Home | Current Version | Previous Version | Text Only | Print | Product List | Glossary Off
Versions: 1 2 3 4 5 6 7 8 9 10 11 12 13 14 15 16 17 18 19 20 21 22 23 24 25 26 27 28 29 30 31 32 33 34 35 36 37 38 39 40 41 42 43 44 45 46 47 48 49 50

000
ASUS43 KDMX 211801
RWRIA

WEATHER ROUNDUP FOR IOWA
NATIONAL WEATHER SERVICE DES MOINES IA
100 PM CDT FRI JUL 21 2017

NOTE: "FAIR" INDICATES FEW OR NO CLOUDS BELOW 12,000 FEET WITH NO
SIGNIFICANT WEATHER AND/OR OBSTRUCTIONS TO VISIBILITY.

* - THESE STATIONS ARE NOT NWS STATIONS...THUS NOT UNDER NWS
QUALITY CONTROL.  THEY ALSO DO NOT REPORT WEATHER SUCH
AS PRECIPITATION OR FOG.

IAZ001>003-012>014-020>022-031>034-043>046-211900-
   NORTHWEST IOWA

CITY           SKY/WX    TMP DP  RH WIND       PRES   REMARKS
CARROLL *      CLOUDY    86  79  79 E14G20    29.85F HX  99
CHEROKEE *     CLOUDY    80  73  78 E9G25     29.82F HX  84
DENISON *      MOSUNNY   88  75  66 SE8G14    29.84F HX  97
ORANGE CITY *  CLOUDY    81  72  74 SE12G18   29.81R HX  84
SHELDON *      PTSUNNY   75  72  88 SE9G15    29.81R
SIOUX CITY     PTSUNNY   87  76  69 E17       29.78F HX  97
6HR MIN TEMP:  73; 6HR MAX TEMP:  88;

SPENCER        CLOUDY    75  71  87 E10G22    29.81F
6HR MIN TEMP:  72; 6HR MAX TEMP:  75; 6HR PCP:  0.48;

STORM LAKE *   MOSUNNY   77  73  88 E13G21    29.86F
$$

IAZ055>058-069>071-079>083-090>094-211900-
   SOUTHWEST IOWA

CITY           SKY/WX    TMP DP  RH WIND       PRES   REMARKS
ATLANTIC *     SUNNY     93  73  52 S13G21    29.83F HX 102
AUDUBON *      SUNNY     91  77  62 S6        29.85F HX 105
CLARINDA *     SUNNY     91  81  70 S9G17     29.86S HX 110
COUNCIL BLFS * SUNNY     93  75  55 S13       29.82S HX 104
CRESTON *      SUNNY     93  75  55 S15       29.88F HX 104
HARLAN  *      MOSUNNY   91  75  59 S8        29.86F HX 102
LAMONI         SUNNY     91  77  63 S12       29.89S HX 104
6HR MIN TEMP:  77; 6HR MAX TEMP:  91;

RED OAK *      SUNNY     91  79  66 S15       29.83S HX 107
SHENANDOAH *   SUNNY     91  79  66 S13       29.83S HX 107
$$

IAZ047>049-059>061-072>074-084-211900-
   CENTRAL IOWA

CITY           SKY/WX    TMP DP  RH WIND       PRES   REMARKS
AMES           PTSUNNY   84  79  85 E14       29.87F HX  96
6HR MIN TEMP:  73; 6HR MAX TEMP:  85; 6HR PCP: TRACE;

ANKENY *       SUNNY     91  75  59 SE7       29.86F HX 102
BOONE *        PTSUNNY   82  77  83 E14G21    29.88S HX  91
CHARITON *     SUNNY     95  73  49 S12       29.87F HX 105
DES MOINES     MOSUNNY   95  73  48 SE12      29.84F HX 104
6HR MIN TEMP:  76; 6HR MAX TEMP:  95;

GRINNELL*      MOSUNNY   88  76  69 SE3       29.91F HX  98
KNOXVILLE *    SUNNY     93  75  55 SE9       29.85F HX 104
MARSHALLTOWN   CLOUDY    76  71  85 E20       29.91F
6HR MIN TEMP:  72; 6HR MAX TEMP:  80; 6HR PCP: TRACE;

NEWTON *       SUNNY     88  77  70 E5G13     29.88F HX 100
PELLA *        SUNNY     94  74  52 S7        29.88F HX 105
$$

IAZ004>006-015-016-023>025-035-036-211900-
   NORTH CENTRAL IOWA

CITY           SKY/WX    TMP DP  RH WIND       PRES   REMARKS
ALGONA *       LGT RAIN  73  73 100 SE12G23   29.93F
CLARION *      CLOUDY    77  73  88 E10G20    29.95R
ESTHERVILLE    PTSUNNY   73  73 100 SE18G29   29.82F
6HR MIN TEMP:  71; 6HR MAX TEMP:  73; 6HR PCP:  0.37;

FORT DODGE *   PTSUNNY   77  72  83 E22G28    29.91F
MASON CITY     LGT RAIN  72  67  84 E6        29.97R
6HR MIN TEMP:  69; 6HR MAX TEMP:  73; 6HR PCP:  0.20;

FOREST CITY *  HVY RAIN  72  68  88 E8        29.96R
WEBSTER CITY * CLOUDY    77  72  83 E16G23    29.90R
IOWA FALLS *   PTSUNNY   75  69  80 E10G21    29.93R
$$

IAZ007>011-017>019-026>030-037>042-050>054-066-211900-
   NORTHEAST IOWA

CITY           SKY/WX    TMP DP  RH WIND       PRES   REMARKS
CEDAR RAPIDS   PTSUNNY   84  78  82 NE9       29.92F HX  95
6HR MIN TEMP:  72; 6HR MAX TEMP:  85;

CHARLES CITY * PTSUNNY   72  72 100 E16G23    29.90F
CLINTON *      CLOUDY    83  76  79 E7        29.96F HX  91
DECORAH *      CLOUDY    70  68  94 CALM      29.95F
DUBUQUE        CLOUDY    73  69  87 N14G29    30.01R
6HR MIN TEMP:  70; 6HR MAX TEMP:  78; 6HR PCP:  0.06;

MONTICELLO *   CLOUDY    73  70  88 NE9G17    29.96F
OELWEIN *      CLOUDY    70  70 100 E12       29.96S
WATERLOO       CLOUDY    73  68  84 E12       29.92F
6HR MIN TEMP:  69; 6HR MAX TEMP:  76; 6HR PCP:  0.34;

$$

IAZ064-065-067-068-078-211900-
   EAST CENTRAL IOWA

CITY           SKY/WX    TMP DP  RH WIND       PRES   REMARKS
DAVENPORT      MOSUNNY   85  74  69 S12       29.95F HX  92
6HR MIN TEMP:  72; 6HR MAX TEMP:  85; 6HR PCP:  0.08;

IOWA CITY      MOSUNNY   88  78  72 SE10      29.91F HX 101
6HR MIN TEMP:  74; 6HR MAX TEMP:  88;

MUSCATINE *    SUNNY     88  77  70 SE13G18   29.91F HX 100
QUAD CITIES    SUNNY     87  76  69 S10       29.92F HX  97
6HR MIN TEMP:  73; 6HR MAX TEMP:  87; 6HR PCP:  0.01;

$$

IAZ062-063-075>077-085>089-095>099-211900-
   SOUTHEAST IOWA

CITY           SKY/WX    TMP DP  RH WIND       PRES   REMARKS
BURLINGTON     SUNNY     92  80  68 S13       29.93F HX 110
6HR MIN TEMP:  76; 6HR MAX TEMP:  92;

FAIRFIELD *    SUNNY     95  73  49 S15       29.89F HX 105
FORT MADISON * SUNNY     91  79  66 S14       29.93F HX 107
KEOKUK *       SUNNY     93  77  59 S9G16     29.92F HX 107
OSKALOOSA *      N/A     93  76  56 SE8       29.88F HX 105
OTTUMWA        SUNNY     96  75  50 S10       29.87F HX 108
6HR MIN TEMP:  76; 6HR MAX TEMP:  96;

WASHINGTON *   MOSUNNY   90  81  74 S10G17    29.91F HX 108
$$

ABBREVIATIONS USED IN REMARKS
   TC - TEMPERATURES IN CELSIUS
  WCI - WIND CHILL INDEX
   HX - HEAT INDEX
  VSB - VISIBILITY
$$





USA.gov is the U.S. government's official web portal to all federal, state and local government web resources and services.